Location: Cutler
(25.6150°N, 80.3110°W)
Time: 04:29:38
(UTC-05:00)

Hubble Space Telescope - Pass Details

Date: 18 November 2017
Orbit: 537 x 541 km, 28.5° (Epoch: 22 November)

Event Time Altitude Azimuth Distance (km) Brightness Sun altitude
Exits shadow 04:28:50 30° 93° (E) 973 2.6 -29.6°
Drops below altitude 10° 04:31:04 10° 82° (E) 1,780 4.3 -29.1°
Sets 04:33:21 0° 78° (ENE) 2,672 5.4 -28.6°
